Regional Weather Roundup
Issued by NWS Bismarck, ND

Home | Current Version | Previous Version | Text Only | Print | Product List | Glossary On
Versions: 1 2 3 4 5 6 7 8 9 10 11 12 13 14 15 16 17 18 19 20 21 22 23 24 25 26 27 28 29 30 31 32 33 34 35 36 37 38 39 40 41 42 43 44 45 46 47 48 49 50
000
ASUS43 KBIS 280710
RWRBIS

NWR BROADCAST TEXT
NATIONAL WEATHER SERVICE BISMARCK ND
200 AM CDT WED JUN 28 2017

NOTE: "FAIR" INDICATES FEW OR NO CLOUDS BELOW 12,000 FEET WITH NO
SIGNIFICANT WEATHER AND/OR OBSTRUCTIONS TO VISIBILITY.


CITY           SKY/WX    TMP DP  RH WIND       PRES   REMARKS
WILLISTON      CLOUDY    65  57  75 NW9       29.68S
MINOT          CLOUDY    67  58  72 NW15      29.56R
MINOT AFB      CLOUDY    65  58  76 NW16      29.56R
BISMARCK       CLEAR     65  64  97 NW9       29.52F
DICKINSON      CLOUDY    65  55  70 NW14      29.64F
GARRISON         N/A     65  57  75 N17       29.55F
HETTINGER ARPT CLOUDY    63  54  72 W15       29.67R
JAMESTOWN      CLOUDY    63  55  75 NE16      29.47S
HAZEN          PTSUNNY   66  59  77 NW8G20    29.59S
LINTON         FAIR     N/A N/A N/A NW8       29.51S
MANDAN         PTSUNNY   63  63 100 NW13      29.54F
STANLEY        FAIR      63  63 100 N16G23    29.64F
TIOGA          FAIR      59  59 100 W9        29.67S
WATFORD CITY   FAIR      63  57  82 NW10      29.66F
$$

CITY           SKY/WX    TMP DP  RH WIND       PRES   REMARKS
GRAND FORKS    RAIN      62  57  83 S8        29.58R
GRAND FORKS AF TSTM      61  57  88 S12       29.59R
DEVILS LAKE    LGT RAIN  63  61  93 E9        29.51F
FARGO          CLOUDY    63  61  93 SE14G24   29.51F
CAVALIER       PTSUNNY   66  50  55 S9        29.55S
GRAFTON        PTSUNNY   64  50  59 S8        29.59R
GWINNER        CLOUDY    66  61  82 E9        29.46R
LANGDON        FAIR      66  52  59 S15G23    29.56F
ROLLA            N/A     63  57  82 S7        29.55F
$$

CITY           SKY/WX    TMP DP  RH WIND       PRES   REMARKS
ABERDEEN       MOCLDY    70  65  84 S12       29.43F
MOBRIDGE       CLOUDY    72  58  61 NW12      29.46F
RAPID CITY     CLOUDY    63  51  65 NW15      29.73F
GLASGOW        CLEAR     59  41  51 NE9       29.74S
SIDNEY         MOCLDY    64  55  72 NW9       29.70F
WOLF POINT     CLEAR     55  45  68 W3        29.74F
GLENDIVE       CLOUDY    61  56  83 NW9       29.74F
MILES CITY     CLEAR     59  52  77 W7        29.77R
BAKER          CLOUDY    62  51  67 W13       29.76R
$$

CITY           SKY/WX    TMP DP  RH WIND       PRES   REMARKS
BILLINGS       PTCLDY    64  45  49 W8        29.81F
GREAT FALLS    CLEAR     54  46  74 SW7       29.77S
ESTEVAN        MOCLDY    59  55  88 W15       29.65S
$$




USA.gov is the U.S. government's official web portal to all federal, state and local government web resources and services.